Weather reports worldwide

Advertisment
Charleville, France (7075): temperature & dewpoint: 16.07.2019 04:00:00 - 22.07.2019 04:00:00 (CEST)Charleville, France (7075): temperature 5cm: 16.07.2019 04:00:00 - 22.07.2019 04:00:00 (CEST)Charleville, France (7075): temperature -20cm & temperature -100cm: 16.07.2019 04:00:00 - 22.07.2019 04:00:00 (CEST)Charleville, France (7075): wind speed & gusts: 16.07.2019 04:00:00 - 22.07.2019 04:00:00 (CEST)Charleville, France (7075): wind direction: 16.07.2019 04:00:00 - 22.07.2019 04:00:00 (CEST)Charleville, France (7075): reduced air pressure: 16.07.2019 04:00:00 - 22.07.2019 04:00:00 (CEST)Charleville, France (7075): visibility: 16.07.2019 04:00:00 - 22.07.2019 04:00:00 (CEST)Charleville, France (7075): sunshine duration: 16.07.2019 04:00:00 - 22.07.2019 04:00:00 (CEST)Charleville, France (7075): precipitation: 16.07.2019 04:00:00 - 22.07.2019 04:00:00 (CEST)
Date & Time tt [°C] td [°C] tt 5cm [°C] tt -20cm [°C] tt -100cm [°C] ff [km/h] ff [kn] fx [km/h] fx [kn] dd ppp [hPa] vv [km] sd [min] rr [mm]
22.07.2019 04:00:00 10,3 9,5 7,6 20,1 16,8 2 1 6 4 WNW 1024,8 0,4 0 0,0
22.07.2019 03:00:00 12,2 11,4 8,8 20,2 16,8 4 2 6 3 WNW 1024,8 11 0 0,0
22.07.2019 02:00:00 12,2 10,9 9,4 20,4 16,8 2 1 4 2 N 1024,5 20 0 0,0
22.07.2019 01:00:00 13,2 10,7 10,8 20,5 16,8 3 1 8 4 NNW 1024,7 20 0 0,0
22.07.2019 00:00:00 15,6 13,3 11,4 20,5 16,8 4 2 6 4 WNW 1024,2 20 0 0,0
21.07.2019 23:00:00 15,4 12,5 12,0 20,5 16,8 0 0 5 3 N 1023,8 20 0 0,0
21.07.2019 22:00:00 17,9 13,4 14,5 20,5 16,8 2 1 5 3 WNW 1023,4 1,8 0 0,0
21.07.2019 21:00:00 22,1 12,4 18,7 20,5 16,8 3 2 12 7 N 1022,3 20 18 0,0
21.07.2019 20:00:00 24,7 12,3 24,2 20,4 16,8 9 5 20 11 NW 1022,0 20 47 0,0
21.07.2019 19:00:00 25,5 12,3 25,2 20,2 16,7 9 5 22 12 NW 1021,8 20 46 0,0
21.07.2019 18:00:00 25,5 11,6 27,4 20,0 16,7 13 7 24 13 WNW 1021,8 20 46 0,0
21.07.2019 17:00:00 25,8 11,9 30,6 19,9 16,8 11 6 31 17 WNW 1021,9 20 60 0,0
21.07.2019 16:00:00 25,8 12,6 31,2 19,7 16,8 15 8 45 24 WNW 1021,9 20 60 0,0
21.07.2019 15:00:00 24,8 12,4 31,2 19,5 16,7 16 8 29 16 WNW 1022,1 20 58 0,0
21.07.2019 14:00:00 24,3 12,6 32,0 19,4 16,8 14 7 29 16 WNW 1022,2 20 60 0,0
21.07.2019 13:00:00 23,2 11,9 30,4 19,4 16,7 11 6 25 14 WSW 1022,3 20 60 0,0
21.07.2019 12:00:00 21,8 12,9 28,6 19,4 16,7 10 5 22 12 W 1022,2 20 60 0,0
21.07.2019 11:00:00 20,4 12,6 24,3 19,4 16,7 16 8 25 13 WNW 1022,2 20 57 0,0
21.07.2019 10:00:00 18,6 13,7 22,2 19,5 16,7 8 4 22 12 WNW 1021,9 20 60 0,0
21.07.2019 09:00:00 17,3 13,4 19,9 19,6 16,7 7 4 13 7 NW 1021,5 20 60 0,0
21.07.2019 08:00:00 16,5 14,0 13,6 19,6 16,7 3 2 6 3 NNW 1020,9 20 60 0,0
21.07.2019 07:00:00 12,5 11,9 7,9 19,8 16,8 0 0 6 3 N 1020,6 19 33 0,0
21.07.2019 06:00:00 11,3 10,5 7,8 19,9 16,7 0 0 4 2 N 1020,0 1,1 0 0,0
21.07.2019 05:00:00 11,5 10,1 8,9 20,0 16,7 4 2 9 5 E 1019,4 2,4 0 0,0
21.07.2019 04:00:00 14,2 12,9 10,5 20,0 16,7 0 0 6 3 N 1018,8 20 0 0,0
21.07.2019 03:00:00 16,9 14,2 13,8 20,1 16,7 5 3 9 5 WNW 1018,2 20 0 0,0
21.07.2019 02:00:00 17,1 14,9 14,6 20,2 16,7 5 3 11 6 WNW 1017,8 20 0 0,0
21.07.2019 01:00:00 17,9 15,5 15,3 20,2 16,7 9 5 14 8 WNW 1017,3 20 0 0,0
21.07.2019 00:00:00 17,9 15,0 14,8 20,2 16,7 3 1 8 5 W 1016,4 20 0 0,0
20.07.2019 23:00:00 21,1 14,7 18,4 20,2 16,7 4 2 22 12 W 1015,6 20 0 0,0
20.07.2019 22:00:00 22,5 14,1 20,6 20,2 16,6 10 5 24 13 WSW 1014,8 20 0 0,0
20.07.2019 21:00:00 23,5 14,8 21,9 20,1 16,7 10 5 29 15 WSW 1013,8 20 33 0,0
20.07.2019 20:00:00 25,1 14,8 25,2 20,0 16,7 14 8 33 18 W 1013,1 20 26 0,0
20.07.2019 19:00:00 24,8 16,0 25,5 20,0 16,7 15 8 30 16 W 1012,8 20 0 0,0
20.07.2019 18:00:00 24,5 18,0 24,4 19,9 16,7 13 7 51 27 WNW 1012,4 20 12 0,0
20.07.2019 17:00:00 27,6 14,6 28,9 19,7 16,7 22 12 49 26 WSW 1011,3 20 23 0,0
20.07.2019 16:00:00 28,5 15,1 28,9 19,6 16,7 21 11 46 25 SW 1010,9 20 31 0,0
20.07.2019 15:00:00 27,4 14,4 29,3 19,4 16,6 20 11 40 22 SW 1010,9 20 15 0,0
20.07.2019 14:00:00 26,8 15,2 28,7 19,3 16,7 18 10 50 27 WSW 1011,3 20 21 0,0
20.07.2019 13:00:00 27,3 15,3 28,6 19,2 16,7 20 11 37 20 SW 1010,8 19 33 0,0
20.07.2019 12:00:00 26,7 15,7 23,8 19,2 16,6 16 9 36 19 SSW 1010,9 20 35 0,0
20.07.2019 11:00:00 24,3 15,2 24,4 19,2 16,7 10 6 19 11 SSE 1010,8 20 5 0,0
20.07.2019 10:00:00 22,3 16,6 23,5 19,2 16,7 9 5 16 9 SE 1011,2 20 22 0,0
20.07.2019 09:00:00 20,6 15,6 22,2 19,3 16,7 9 5 16 8 ESE 1011,2 20 54 0,0
20.07.2019 08:00:00 18,9 16,7 14,4 19,4 16,6 0 0 5 3 N 1011,4 20 56 0,0
20.07.2019 07:00:00 14,4 14,2 9,4 19,6 16,7 0 0 6 4 N 1011,8 20 33 0,0
20.07.2019 06:00:00 11,3 10,8 9,2 19,7 16,7 2 1 6 3 SE 1012,2 19 0 0,0
20.07.2019 05:00:00 12,9 12,6 9,3 19,8 16,7 2 1 6 4 ESE 1012,4 7 0 0,0
20.07.2019 04:00:00 12,4 11,9 9,4 19,9 16,7 2 1 5 3 SE 1012,5 1,0 0 0,0
20.07.2019 03:00:00 13,5 13,0 9,7 20,1 16,7 0 0 3 2 N 1012,7 1,2 0 0,0
20.07.2019 02:00:00 13,4 12,9 10,1 20,1 16,7 2 1 4 2 ESE 1013,1 14 0 0,0
20.07.2019 01:00:00 13,6 12,8 11,5 20,2 16,7 3 1 5 3 SSE 1013,5 20 0 0,0
20.07.2019 00:00:00 14,8 13,7 12,2 20,2 16,7 2 1 5 3 ESE 1013,7 17 0 0,0
19.07.2019 23:00:00 16,4 14,4 13,9 20,2 16,6 4 2 6 4 ESE 1013,8 20 0 0,0
19.07.2019 22:00:00 18,8 15,7 16,3 20,2 16,7 4 2 6 3 ESE 1013,5 15 0 0,0
19.07.2019 21:00:00 21,0 17,2 19,8 20,1 16,6 4 2 6 3 ESE 1013,4 20 3 0,0
19.07.2019 20:00:00 23,7 16,0 24,3 20,0 16,7 4 2 15 8 SE 1013,5 20 0 0,0
19.07.2019 19:00:00 24,5 14,6 25,5 19,9 16,6 8 4 16 9 SSW 1013,6 20 0 0,0
19.07.2019 18:00:00 24,4 13,9 26,2 19,8 16,7 8 4 25 13 SW 1013,8 20 1 0,0
19.07.2019 17:00:00 23,8 14,5 25,9 19,7 16,7 8 4 29 16 S 1014,3 20 16 0,0
19.07.2019 16:00:00 23,4 14,1 26,2 19,5 16,7 11 6 29 16 SSW 1014,7 20 26 0,0
19.07.2019 15:00:00 23,2 13,9 26,9 19,4 16,6 11 6 28 15 WSW 1015,0 20 21 0,0
19.07.2019 14:00:00 23,0 14,6 24,8 19,3 16,7 11 6 26 14 WSW 1015,2 20 21 0,0
19.07.2019 13:00:00 21,2 13,6 26,7 19,2 16,6 13 7 28 15 WSW 1015,8 20 43 0,0
19.07.2019 12:00:00 20,9 13,8 25,3 19,2 16,6 13 7 29 16 SW 1015,9 20 25 0,0
19.07.2019 11:00:00 19,4 13,1 23,9 19,2 16,6 12 6 27 15 WSW 1016,2 20 17 0,0
19.07.2019 10:00:00 19,3 13,9 20,8 19,2 16,6 11 6 21 11 WSW 1016,1 20 60 0,0
19.07.2019 09:00:00 17,2 14,1 16,5 19,2 16,6 10 5 19 10 W 1016,0 20 6 0,0
19.07.2019 08:00:00 16,3 13,4 15,0 19,3 16,6 4 2 8 4 NNW 1015,6 20 7 0,0
19.07.2019 07:00:00 15,7 13,5 14,8 19,4 16,6 5 3 14 8 NW 1015,3 20 0 0,0
19.07.2019 06:00:00 16,0 13,7 15,0 19,4 16,6 9 5 18 10 WNW 1015,2 20 0 0,0
19.07.2019 05:00:00 16,9 15,8 16,3 19,5 16,6 8 4 13 7 WNW 1014,8 20 0 0,0
19.07.2019 04:00:00 17,1 16,0 16,6 19,5 16,6 8 4 14 8 WSW 1014,7 20 0 0,0
19.07.2019 03:00:00 17,0 16,0 16,7 19,6 16,6 4 2 10 5 SW 1014,6 20 0 0,2
19.07.2019 02:00:00 16,8 16,0 16,6 19,6 16,6 4 2 11 6 SE 1014,7 5 0 1,2
19.07.2019 01:00:00 17,1 15,8 16,6 19,6 16,6 4 2 11 6 SW 1014,6 6 0 0,8
19.07.2019 00:00:00 18,1 15,5 16,9 19,7 16,6 9 5 15 8 WNW 1014,0 20 0 0,0
18.07.2019 23:00:00 18,8 14,7 17,7 19,7 16,6 5 3 13 7 W 1013,9 20 0 0,0
18.07.2019 22:00:00 19,2 14,5 18,4 19,7 16,7 11 6 29 16 NW 1013,7 20 0 0,0
18.07.2019 21:00:00 21,6 12,7 21,0 19,6 16,6 11 6 26 14 WNW 1012,9 20 0 0,0
18.07.2019 20:00:00 23,5 10,5 23,6 19,5 16,6 12 7 26 14 W 1012,3 20 0 0,0
18.07.2019 19:00:00 23,9 10,9 24,3 19,4 16,6 13 7 24 13 W 1012,2 20 0 0,0
18.07.2019 18:00:00 24,5 11,8 26,1 19,3 16,6 16 9 30 16 W 1012,1 20 1 0,0
18.07.2019 17:00:00 24,3 11,6 27,1 19,2 16,6 14 8 33 18 WSW 1012,1 20 25 0,0
18.07.2019 16:00:00 25,0 10,8 26,5 19,1 16,6 20 11 36 19 W 1012,1 20 22 0,0
18.07.2019 15:00:00 23,8 12,1 27,3 19,0 16,6 15 8 36 20 W 1012,5 20 9 0,0
18.07.2019 14:00:00 23,7 12,7 27,2 18,9 16,6 16 9 27 15 W 1012,4 20 6 0,0
18.07.2019 13:00:00 23,2 12,5 28,4 18,9 16,6 13 7 24 13 W 1012,7 20 16 0,0
18.07.2019 12:00:00 22,7 10,5 26,3 18,8 16,6 10 6 19 11 W 1012,7 20 9 0,0
18.07.2019 11:00:00 22,1 10,9 24,6 18,8 16,6 8 5 17 9 WNW 1012,6 20 54 0,0
18.07.2019 10:00:00 20,0 12,5 22,3 18,9 16,6 9 5 15 8 WNW 1012,8 20 57 0,0
18.07.2019 09:00:00 18,7 12,7 18,5 19,0 16,7 2 1 6 3 WNW 1012,9 14 52 0,0
18.07.2019 08:00:00 15,3 12,8 12,2 19,0 16,6 2 1 5 3 S 1012,9 18 32 0,0
18.07.2019 07:00:00 12,8 11,4 11,8 19,2 16,7 4 2 13 7 WNW 1013,0 18 0 0,0
18.07.2019 06:00:00 12,6 11,2 11,1 19,2 16,7 0 0 8 4 N 1012,8 14 0 0,0
18.07.2019 05:00:00 12,9 12,0 10,5 19,3 16,7 5 3 14 7 S 1012,8 18 0 0,0
18.07.2019 04:00:00 13,3 11,7 10,9 19,5 16,7 3 1 11 6 NNW 1013,2 20 0 0,0
18.07.2019 03:00:00 13,1 11,7 11,4 19,5 16,6 0 0 3 2 N 1013,3 18 0 0,0
18.07.2019 02:00:00 13,4 11,8 11,5 19,6 16,7 2 1 4 2 E 1013,4 20 0 0,0
18.07.2019 01:00:00 13,9 11,8 11,8 19,6 16,6 0 0 6 3 N 1013,4 10 0 0,0
18.07.2019 00:00:00 14,3 11,8 11,9 19,7 16,7 2 1 5 3 NW 1013,2 18 0 0,0
17.07.2019 23:00:00 14,8 11,8 12,3 19,7 16,6 4 2 6 3 SE 1013,1 20 0 0,0
17.07.2019 22:00:00 18,7 12,9 14,6 19,6 16,7 0 0 10 5 N 1013,0 2,7 0 0,0
17.07.2019 21:00:00 22,3 12,0 19,8 19,5 16,7 6 4 10 5 W 1012,6 20 0 0,0
17.07.2019 20:00:00 24,3 10,9 23,7 19,4 16,7 8 4 16 8 W 1012,4 20 27 0,0
17.07.2019 19:00:00 25,2 10,6 25,8 19,2 16,6 8 4 16 9 W 1012,4 20 36 0,0
17.07.2019 18:00:00 26,0 9,8 - - - 9 5 18 10 W 1012,7 20 - 0,0
17.07.2019 17:00:00 26,1 10,3 30,2 18,7 16,6 9 5 21 11 NNW 1013,2 20 60 0,0
17.07.2019 16:00:00 25,6 9,4 32,2 18,5 16,7 9 5 22 12 N 1013,5 20 60 0,0
17.07.2019 15:00:00 25,4 11,2 32,6 18,3 16,7 8 4 22 12 WNW 1013,9 20 60 0,0
17.07.2019 14:00:00 24,9 12,5 33,4 18,1 16,7 5 3 34 18 SW 1014,3 20 60 0,0
17.07.2019 13:00:00 22,6 12,5 30,6 18,0 16,7 10 5 20 11 WNW 1015,2 20 60 0,0
17.07.2019 12:00:00 21,9 13,8 30,5 18,0 16,7 5 3 18 10 S 1015,4 19 60 0,0
17.07.2019 11:00:00 21,1 13,0 24,9 18,0 16,7 5 3 15 8 SE 1015,8 18 60 0,0
17.07.2019 10:00:00 19,1 12,8 20,5 18,1 16,7 3 2 9 5 NW 1016,2 13 60 0,0
17.07.2019 09:00:00 14,5 11,6 14,6 18,2 16,7 3 2 9 5 WNW 1016,5 10 60 0,0
17.07.2019 08:00:00 10,5 9,9 8,4 18,4 16,7 6 3 9 5 WNW 1016,7 7 60 0,0
17.07.2019 07:00:00 8,2 7,9 2,9 18,5 16,7 2 1 8 4 W 1017,0 7 38 0,0
17.07.2019 06:00:00 5,2 4,5 2,8 18,7 16,7 3 2 6 3 WNW 1017,5 8 0 0,0
17.07.2019 05:00:00 6,5 5,9 3,1 18,8 16,7 0 0 5 3 N 1017,3 0,4 0 0,0
17.07.2019 04:00:00 8,0 7,4 3,9 19,0 16,7 3 2 8 4 NW 1017,6 3,1 0 0,0
17.07.2019 03:00:00 8,5 7,9 4,1 19,1 16,7 2 1 5 3 WNW 1017,8 9 0 0,0
17.07.2019 02:00:00 8,6 7,4 5,2 19,2 16,7 3 1 5 3 W 1018,0 1,0 0 0,0
17.07.2019 01:00:00 10,3 8,9 6,2 19,2 16,7 0 0 5 3 N 1018,0 10 0 0,0
17.07.2019 00:00:00 12,0 9,6 8,0 19,3 16,7 3 2 9 5 WNW 1017,9 17 0 0,0
16.07.2019 23:00:00 16,4 11,1 12,7 19,3 16,7 6 3 10 5 WNW 1017,6 20 0 0,0
16.07.2019 22:00:00 17,4 11,2 13,6 19,2 16,7 5 3 13 7 NNW 1017,3 20 15 0,0
16.07.2019 21:00:00 20,1 11,8 18,5 19,1 16,7 8 5 19 11 N 1016,8 20 60 0,0
16.07.2019 20:00:00 22,1 12,6 22,7 19,0 16,7 15 8 23 12 N 1016,7 20 60 0,0
16.07.2019 19:00:00 22,4 11,8 23,3 18,8 16,7 11 6 21 12 N 1016,5 20 54 0,0
16.07.2019 18:00:00 23,8 10,5 25,3 18,6 16,7 12 6 22 12 NNW 1016,6 20 46 0,0
16.07.2019 17:00:00 24,1 10,7 28,8 18,4 16,7 9 5 28 15 NNW 1016,9 20 60 0,0
16.07.2019 16:00:00 23,5 9,8 30,1 18,1 16,7 5 3 23 12 NNW 1017,4 20 60 0,0
16.07.2019 15:00:00 22,0 10,8 30,2 18,0 16,7 8 5 16 9 W 1017,8 20 60 0,0
16.07.2019 14:00:00 21,2 10,7 28,9 17,8 16,7 9 5 17 9 SSE 1018,3 20 58 0,0
16.07.2019 13:00:00 20,1 10,8 28,3 17,7 16,7 8 5 27 15 SSE 1018,9 20 60 0,0
16.07.2019 12:00:00 18,9 9,9 23,1 17,7 16,7 5 3 19 10 NW 1019,4 20 39 0,0
16.07.2019 11:00:00 17,5 10,1 20,4 17,7 16,7 4 2 13 7 NNE 1019,7 20 20 0,0
16.07.2019 10:00:00 18,1 11,2 19,1 17,8 16,7 4 2 10 5 ENE 1019,8 19 60 0,0
16.07.2019 09:00:00 13,5 10,5 13,9 17,9 16,7 2 1 9 5 WNW 1020,4 18 60 0,0
16.07.2019 08:00:00 9,5 8,7 6,9 18,0 16,7 5 3 10 5 NW 1020,7 9 60 0,0
16.07.2019 07:00:00 6,4 6,0 2,4 18,2 16,7 2 1 5 3 E 1020,7 11 36 0,0
16.07.2019 06:00:00 5,2 4,8 2,2 18,3 16,7 0 0 4 2 N 1020,8 13 0 0,0
16.07.2019 05:00:00 5,4 4,7 2,7 18,5 16,8 0 0 6 3 N 1020,7 0,5 0 0,0
16.07.2019 04:00:00 6,2 5,3 3,2 18,6 16,7 0 0 6 4 N 1020,7 10 0 0,0

tt = temperature
td = dewpoint
tt 5cm = temperature 5cm
tt -20cm = temperature -20cm
tt -100cm = temperature -100cm
ff = wind speed
fx = gusts
dd = wind direction
ppp = reduced air pressure
vv = visibility
sd = sunshine duration
rr = precipitation

Next stations